User: anonymous   Login
Location: Bottenau
(48.5138°N, 8.0462°E)
Time: 03:00:14
(UTC+00:00)
Language:

Cosmos 1140 Rocket - Orbit

View from above orbital plane
View from above orbital plane
View from above satellite
View from above satellite

Ground track
Ground track

The orbit data is extracted from the following two-line orbital elements,

1 11574U 79089B   21174.56430926  .00000069  00000-0  29742-4 0  9994
2 11574  74.0705  30.1918 0016822 280.4127  79.5132 14.40809619188273
Epoch (UTC): 23 June 2021 13:32:36
Eccentricity: 0.0016822
inclination: 74.0705°
perigee height: 744 km
apogee height: 768 km
right ascension of ascending node: 30.1918°
argument of perigee: 280.4127°
revolutions per day: 14.40809619
mean anomaly at epoch: 79.5132°
orbit number at epoch: 18827

The dashed part of the orbit path shows where the satellite is in the earth's shadow,  

DLR